Satellite: ISS
Catalog number: 25544
Epoch time:      10190.00027912
Element set:     475
Inclination:      051.6461 deg
RA of node:       118.9352 deg
Eccentricity:    0.0010301
Arg of perigee:   057.8761 deg
Mean anomaly:     044.0550 deg
Mean motion:   15.72282046 rev/day
Decay rate:      6.815e-05 rev/day^2
Epoch rev:           66690
Checksum:              269

Satellite: CO-58
Catalog number: 28895
Epoch time:      10188.61154042
Element set:     625
Inclination:      098.0127 deg
RA of node:       072.4103 deg
Eccentricity:    0.0016926
Arg of perigee:   219.2510 deg
Mean anomaly:     140.7466 deg
Mean motion:   14.59907667 rev/day
Decay rate:       1.16e-06 rev/day^2
Epoch rev:           24996
Checksum:              317

Satellite: FALCON
Catalog number: 30776
Epoch time:      10188.59855289
Element set:    0877
Inclination:      035.4341 deg
RA of node:       280.3668 deg
Eccentricity:    0.0001649
Arg of perigee:   338.5622 deg
Mean anomaly:     021.5025 deg
Mean motion:   15.03708471 rev/day
Decay rate:       4.42e-06 rev/day^2
Epoch rev:           18313
Checksum:              302

Satellite: MAST
Catalog number: 31126
Epoch time:      10188.66624523
Element set:     907
Inclination:      097.9362 deg
RA of node:       229.6185 deg
Eccentricity:    0.0094547
Arg of perigee:   161.8316 deg
Mean anomaly:     198.6292 deg
Mean motion:   14.53600126 rev/day
Decay rate:        8.8e-07 rev/day^2
Epoch rev:           17103
Checksum:              308

Satellite: CAPE1
Catalog number: 31130
Epoch time:      10188.80659317
Element set:    0929
Inclination:      097.9389 deg
RA of node:       227.1213 deg
Eccentricity:    0.0102252
Arg of perigee:   169.2891 deg
Mean anomaly:     191.0491 deg
Mean motion:   14.52195989 rev/day
Decay rate:       1.99e-06 rev/day^2
Epoch rev:           17065
Checksum:              322

Satellite: COMPASS
Catalog number: 32787
Epoch time:      10189.30316139
Element set:     717
Inclination:      097.8934 deg
RA of node:       253.7703 deg
Eccentricity:    0.0015149
Arg of perigee:   213.2804 deg
Mean anomaly:     146.7410 deg
Mean motion:   14.81903856 rev/day
Decay rate:       2.65e-06 rev/day^2
Epoch rev:           11862
Checksum:              302

Satellite: AAUSAT2
Catalog number: 32788
Epoch time:      10188.69652965
Element set:    0712
Inclination:      097.8930 deg
RA of node:       253.3040 deg
Eccentricity:    0.0014571
Arg of perigee:   216.8269 deg
Mean anomaly:     143.1916 deg
Mean motion:   14.82049102 rev/day
Decay rate:       5.91e-06 rev/day^2
Epoch rev:           11854
Checksum:              310

Satellite: DO-64
Catalog number: 32789
Epoch time:      10188.77089967
Element set:    0729
Inclination:      097.9000 deg
RA of node:       253.8740 deg
Eccentricity:    0.0014951
Arg of perigee:   214.0523 deg
Mean anomaly:     145.9695 deg
Mean motion:   14.82201584 rev/day
Decay rate:       5.84e-06 rev/day^2
Epoch rev:           11855
Checksum:              340

Satellite: CO-66
Catalog number: 32791
Epoch time:      10188.18014593
Element set:    0711
Inclination:      097.8952 deg
RA of node:       252.6761 deg
Eccentricity:    0.0015257
Arg of perigee:   216.1249 deg
Mean anomaly:     143.8913 deg
Mean motion:   14.81683481 rev/day
Decay rate:        1.4e-07 rev/day^2
Epoch rev:           11841
Checksum:              310

Satellite: RS-30
Catalog number: 32953
Epoch time:      10189.61999529
Element set:     851
Inclination:      082.5003 deg
RA of node:       016.3483 deg
Eccentricity:    0.0019864
Arg of perigee:   056.9223 deg
Mean anomaly:     303.3759 deg
Mean motion:   12.43006185 rev/day
Decay rate:        1.0e-07 rev/day^2
Epoch rev:            9640
Checksum:              297

Satellite: TACSAT-3
Catalog number: 35001
Epoch time:      10189.87316863
Element set:     328
Inclination:      040.4563 deg
RA of node:       083.8228 deg
Eccentricity:    0.0020301
Arg of perigee:   170.7169 deg
Mean anomaly:     189.4026 deg
Mean motion:   15.41966089 rev/day
Decay rate:      2.838e-05 rev/day^2
Epoch rev:            6398
Checksum:              311

Satellite: PHARMSAT
Catalog number: 35002
Epoch time:      10188.84850495
Element set:    0316
Inclination:      040.4684 deg
RA of node:       087.9055 deg
Eccentricity:    0.0022910
Arg of perigee:   166.1340 deg
Mean anomaly:     194.0099 deg
Mean motion:   15.42471218 rev/day
Decay rate:      2.849e-05 rev/day^2
Epoch rev:           06384
Checksum:              295

Satellite: HAWKSAT1
Catalog number: 35003
Epoch time:      10189.87796487
Element set:     334
Inclination:      040.4608 deg
RA of node:       075.8783 deg
Eccentricity:    0.0021724
Arg of perigee:   190.9384 deg
Mean anomaly:     169.0926 deg
Mean motion:   15.45734782 rev/day
Decay rate:      5.487e-05 rev/day^2
Epoch rev:            6407
Checksum:              335

Satellite: CP6
Catalog number: 35004
Epoch time:      10188.89429528
Element set:    0331
Inclination:      040.4627 deg
RA of node:       080.7370 deg
Eccentricity:    0.0020730
Arg of perigee:   187.2259 deg
Mean anomaly:     172.8198 deg
Mean motion:   15.46616316 rev/day
Decay rate:      7.575e-05 rev/day^2
Epoch rev:           06392
Checksum:              311

